Location: Unspecified
(0.0000°N, 0.0000°E)
Time: 06:30:50
(UTC+00:00)

Vanguard 2 - Pass Details

Date: 26 November 2019
Orbit: 553 x 2938 km, 32.9° (Epoch: 10 December)

Event Time Altitude Azimuth Distance (km) Brightness Sun altitude
Rises 21:28:20 0° 204° (SSW) 4,703 12.1 -50.1°
Reaches altitude 10° 21:34:41 10° 174° (S) 4,336 11.5 -51.4°
Maximum altitude 21:38:40 12° 154° (SSE) 4,517 11.4 -52.2°
Enters shadow 21:41:35 11° 142° (SE) 4,813 11.5 -52.8°
